Year,Month,Day,Hour,Minute,Value (Times are PST for temperature in C)
2014,08,08,00,00,16.40
2014,08,08,00,01,16.40
2014,08,08,00,02,16.30
2014,08,08,00,03,16.30
2014,08,08,00,04,16.20
2014,08,08,00,05,16.20
2014,08,08,00,06,16.20
2014,08,08,00,07,16.10
2014,08,08,00,08,16.10
2014,08,08,00,09,16.10
2014,08,08,00,10,16.00
2014,08,08,00,11,16.00
2014,08,08,00,12,15.90
2014,08,08,00,13,15.90
2014,08,08,00,14,15.80
2014,08,08,00,15,15.80
2014,08,08,00,16,15.70
2014,08,08,00,17,15.70
2014,08,08,00,18,15.70
2014,08,08,00,19,15.60
2014,08,08,00,20,15.60
2014,08,08,00,21,15.50
2014,08,08,00,22,15.50
2014,08,08,00,23,15.40
2014,08,08,00,24,15.40
2014,08,08,00,25,15.30
2014,08,08,00,26,15.30
2014,08,08,00,27,15.30
2014,08,08,00,28,15.20
2014,08,08,00,29,15.20
2014,08,08,00,30,15.20
2014,08,08,00,31,15.20
2014,08,08,00,32,15.10
2014,08,08,00,33,15.10
2014,08,08,00,34,15.10
2014,08,08,00,35,15.10
2014,08,08,00,36,15.00
2014,08,08,00,37,15.00
2014,08,08,00,38,15.00
2014,08,08,00,39,15.00
2014,08,08,00,40,15.00
2014,08,08,00,41,15.00
2014,08,08,00,42,15.00
2014,08,08,00,43,15.00
2014,08,08,00,44,15.00
2014,08,08,00,45,15.00
2014,08,08,00,46,15.00
2014,08,08,00,47,15.00
2014,08,08,00,48,14.90
2014,08,08,00,49,14.90
2014,08,08,00,50,14.90
2014,08,08,00,51,14.90
2014,08,08,00,52,14.90
2014,08,08,00,53,14.90
2014,08,08,00,54,14.90
2014,08,08,00,55,14.90
2014,08,08,00,56,14.80
2014,08,08,00,57,14.80
2014,08,08,00,58,14.80
2014,08,08,00,59,14.80
2014,08,08,01,00,14.80
2014,08,08,01,01,14.80
2014,08,08,01,02,14.70
2014,08,08,01,03,14.70
2014,08,08,01,04,14.70
2014,08,08,01,05,14.70
2014,08,08,01,06,14.60
2014,08,08,01,07,14.60
2014,08,08,01,08,14.60
2014,08,08,01,09,14.60
2014,08,08,01,10,14.60
2014,08,08,01,11,14.60
2014,08,08,01,12,14.50
2014,08,08,01,13,14.50
2014,08,08,01,14,14.50
2014,08,08,01,15,14.50
2014,08,08,01,16,14.50
2014,08,08,01,17,14.50
2014,08,08,01,18,14.50
2014,08,08,01,19,14.50
2014,08,08,01,20,14.50
2014,08,08,01,21,14.50
2014,08,08,01,22,14.50
2014,08,08,01,23,14.60
2014,08,08,01,24,14.70
2014,08,08,01,25,14.70
2014,08,08,01,26,14.80
2014,08,08,01,27,14.80
2014,08,08,01,28,14.80
2014,08,08,01,29,14.80
2014,08,08,01,30,14.80
2014,08,08,01,31,14.70
2014,08,08,01,32,14.70
2014,08,08,01,33,14.70
2014,08,08,01,34,14.70
2014,08,08,01,35,14.60
2014,08,08,01,36,14.60
2014,08,08,01,37,14.60
2014,08,08,01,38,14.50
2014,08,08,01,39,14.50
2014,08,08,01,40,14.40
2014,08,08,01,41,14.40
2014,08,08,01,42,14.30
2014,08,08,01,43,14.30
2014,08,08,01,44,14.30
2014,08,08,01,45,14.30
2014,08,08,01,46,14.30
2014,08,08,01,47,14.20
2014,08,08,01,48,14.20
2014,08,08,01,49,14.20
2014,08,08,01,50,14.20
2014,08,08,01,51,14.20
2014,08,08,01,52,14.20
2014,08,08,01,53,14.10
2014,08,08,01,54,14.10
2014,08,08,01,55,14.10
2014,08,08,01,56,14.10
2014,08,08,01,57,14.10
2014,08,08,01,58,14.00
2014,08,08,01,59,14.00
2014,08,08,02,00,14.00
2014,08,08,02,01,14.00
2014,08,08,02,02,13.90
2014,08,08,02,03,13.90
2014,08,08,02,04,13.90
2014,08,08,02,05,13.90
2014,08,08,02,06,13.90
2014,08,08,02,07,13.90
2014,08,08,02,08,13.90
2014,08,08,02,09,13.90
2014,08,08,02,10,13.90
2014,08,08,02,11,13.90
2014,08,08,02,12,13.80
2014,08,08,02,13,13.80
2014,08,08,02,14,13.90
2014,08,08,02,15,14.00
2014,08,08,02,16,14.00
2014,08,08,02,17,14.10
2014,08,08,02,18,14.20
2014,08,08,02,19,14.30
2014,08,08,02,20,14.40
2014,08,08,02,21,14.50
2014,08,08,02,22,14.60
2014,08,08,02,23,14.70
2014,08,08,02,24,14.80
2014,08,08,02,25,14.90
2014,08,08,02,26,15.00
2014,08,08,02,27,15.00
2014,08,08,02,28,15.10
2014,08,08,02,29,15.10
2014,08,08,02,30,15.10
2014,08,08,02,31,15.20
2014,08,08,02,32,15.20
2014,08,08,02,33,15.20
2014,08,08,02,34,15.20
2014,08,08,02,35,15.20
2014,08,08,02,36,15.20
2014,08,08,02,37,15.20
2014,08,08,02,38,15.20
2014,08,08,02,39,15.10
2014,08,08,02,40,15.10
2014,08,08,02,41,15.10
2014,08,08,02,42,15.10
2014,08,08,02,43,15.10
2014,08,08,02,44,15.10
2014,08,08,02,45,15.00
2014,08,08,02,46,15.00
2014,08,08,02,47,14.90
2014,08,08,02,48,15.00
2014,08,08,02,49,15.00
2014,08,08,02,50,15.00
2014,08,08,02,51,15.10
2014,08,08,02,52,15.10
2014,08,08,02,53,15.10
2014,08,08,02,54,15.10
2014,08,08,02,55,15.20
2014,08,08,02,56,15.20
2014,08,08,02,57,15.20
2014,08,08,02,58,15.30
2014,08,08,02,59,15.30
2014,08,08,03,00,15.30
2014,08,08,03,01,15.30
2014,08,08,03,02,15.30
2014,08,08,03,03,15.30
2014,08,08,03,04,15.30
2014,08,08,03,05,15.30
2014,08,08,03,06,15.20
2014,08,08,03,07,15.20
2014,08,08,03,08,15.10
2014,08,08,03,09,15.00
2014,08,08,03,10,15.00
2014,08,08,03,11,14.90
2014,08,08,03,12,14.80
2014,08,08,03,13,14.80
2014,08,08,03,14,14.70
2014,08,08,03,15,14.70
2014,08,08,03,16,14.60
2014,08,08,03,17,14.60
2014,08,08,03,18,14.50
2014,08,08,03,19,14.50
2014,08,08,03,20,14.40
2014,08,08,03,21,14.40
2014,08,08,03,22,14.30
2014,08,08,03,23,14.30
2014,08,08,03,24,14.20
2014,08,08,03,25,14.20
2014,08,08,03,26,14.10
2014,08,08,03,27,14.10
2014,08,08,03,28,14.10
2014,08,08,03,29,14.00
2014,08,08,03,30,14.00
2014,08,08,03,31,14.00
2014,08,08,03,32,13.90
2014,08,08,03,33,13.90
2014,08,08,03,34,13.90
2014,08,08,03,35,13.90
2014,08,08,03,36,13.80
2014,08,08,03,37,13.80
2014,08,08,03,38,13.80
2014,08,08,03,39,13.80
2014,08,08,03,40,13.80
2014,08,08,03,41,13.90
2014,08,08,03,42,13.90
2014,08,08,03,43,13.90
2014,08,08,03,44,14.00
2014,08,08,03,45,14.00
2014,08,08,03,46,14.00
2014,08,08,03,47,14.00
2014,08,08,03,48,14.00
2014,08,08,03,49,14.00
2014,08,08,03,50,14.00
2014,08,08,03,51,14.00
2014,08,08,03,52,14.10
2014,08,08,03,53,14.10
2014,08,08,03,54,14.20
2014,08,08,03,55,14.20
2014,08,08,03,56,14.30
2014,08,08,03,57,14.30
2014,08,08,03,58,14.40
2014,08,08,03,59,14.40
2014,08,08,04,00,14.50
2014,08,08,04,01,14.50
2014,08,08,04,02,14.60
2014,08,08,04,03,14.60
2014,08,08,04,04,14.70
2014,08,08,04,05,14.70
2014,08,08,04,06,14.70
2014,08,08,04,07,14.80
2014,08,08,04,08,14.80
2014,08,08,04,09,14.80
2014,08,08,04,10,14.80
2014,08,08,04,11,14.70
2014,08,08,04,12,14.70
2014,08,08,04,13,14.70
2014,08,08,04,14,14.60
2014,08,08,04,15,14.60
2014,08,08,04,16,14.50
2014,08,08,04,17,14.50
2014,08,08,04,18,14.40
2014,08,08,04,19,14.40
2014,08,08,04,20,14.40
2014,08,08,04,21,14.30
2014,08,08,04,22,14.30
2014,08,08,04,23,14.20
2014,08,08,04,24,14.20
2014,08,08,04,25,14.10
2014,08,08,04,26,14.00
2014,08,08,04,27,14.00
2014,08,08,04,28,13.90
2014,08,08,04,29,13.90
2014,08,08,04,30,13.80
2014,08,08,04,31,13.80
2014,08,08,04,32,13.80
2014,08,08,04,33,13.70
2014,08,08,04,34,13.70
2014,08,08,04,35,13.70
2014,08,08,04,36,13.70
2014,08,08,04,37,13.70
2014,08,08,04,38,13.70
2014,08,08,04,39,13.70
2014,08,08,04,40,13.60
2014,08,08,04,41,13.60
2014,08,08,04,42,13.50
2014,08,08,04,43,13.50
2014,08,08,04,44,13.40
2014,08,08,04,45,13.40
2014,08,08,04,46,13.40
2014,08,08,04,47,13.40
2014,08,08,04,48,13.50
2014,08,08,04,49,13.60
2014,08,08,04,50,13.70
2014,08,08,04,51,13.80
2014,08,08,04,52,13.90
2014,08,08,04,53,14.10
2014,08,08,04,54,14.10
2014,08,08,04,55,14.20
2014,08,08,04,56,14.30
2014,08,08,04,57,14.40
2014,08,08,04,58,14.50
2014,08,08,04,59,14.50
2014,08,08,05,00,14.60
2014,08,08,05,01,14.60
2014,08,08,05,02,14.70
2014,08,08,05,03,14.70
2014,08,08,05,04,14.70
2014,08,08,05,05,14.70
2014,08,08,05,06,14.80
2014,08,08,05,07,14.80
2014,08,08,05,08,14.80
2014,08,08,05,09,14.80
2014,08,08,05,10,14.80
2014,08,08,05,11,14.70
2014,08,08,05,12,14.70
2014,08,08,05,13,14.70
2014,08,08,05,14,14.70
2014,08,08,05,15,14.60
2014,08,08,05,16,14.60
2014,08,08,05,17,14.70
2014,08,08,05,18,14.70
2014,08,08,05,19,14.70
2014,08,08,05,20,14.70
2014,08,08,05,21,14.70
2014,08,08,05,22,14.70
2014,08,08,05,23,14.70
2014,08,08,05,24,14.80
2014,08,08,05,25,14.80
2014,08,08,05,26,14.80
2014,08,08,05,27,14.80
2014,08,08,05,28,14.80
2014,08,08,05,29,14.80
2014,08,08,05,30,14.80
2014,08,08,05,31,14.80
2014,08,08,05,32,14.80
2014,08,08,05,33,14.80
2014,08,08,05,34,14.80
2014,08,08,05,35,14.80
2014,08,08,05,36,14.80
2014,08,08,05,37,14.80
2014,08,08,05,38,14.80
2014,08,08,05,39,14.80
2014,08,08,05,40,14.80
2014,08,08,05,41,14.80
2014,08,08,05,42,14.80
2014,08,08,05,43,14.70
2014,08,08,05,44,14.70
2014,08,08,05,45,14.70
2014,08,08,05,46,14.60
2014,08,08,05,47,14.60
2014,08,08,05,48,14.60
2014,08,08,05,49,14.50
2014,08,08,05,50,14.50
2014,08,08,05,51,14.40
2014,08,08,05,52,14.40
2014,08,08,05,53,14.30
2014,08,08,05,54,14.30
2014,08,08,05,55,14.30
2014,08,08,05,56,14.20
2014,08,08,05,57,14.20
2014,08,08,05,58,14.20
2014,08,08,05,59,14.20
2014,08,08,06,00,14.20
2014,08,08,06,01,14.20
2014,08,08,06,02,14.20
2014,08,08,06,03,14.20
2014,08,08,06,04,14.20
2014,08,08,06,05,14.20
2014,08,08,06,06,14.20
2014,08,08,06,07,14.20
2014,08,08,06,08,14.20
2014,08,08,06,09,14.20
2014,08,08,06,10,14.20
2014,08,08,06,11,14.30
2014,08,08,06,12,14.30
2014,08,08,06,13,14.30
2014,08,08,06,14,14.30
2014,08,08,06,15,14.30
2014,08,08,06,16,14.30
2014,08,08,06,17,14.30
2014,08,08,06,18,14.40
2014,08,08,06,19,14.40
2014,08,08,06,20,14.40
2014,08,08,06,21,14.40
2014,08,08,06,22,14.40
2014,08,08,06,23,14.40
2014,08,08,06,24,14.30
2014,08,08,06,25,14.30
2014,08,08,06,26,14.30
2014,08,08,06,27,14.30
2014,08,08,06,28,14.30
2014,08,08,06,29,14.30
2014,08,08,06,30,14.30
2014,08,08,06,31,14.30
2014,08,08,06,32,14.30
2014,08,08,06,33,14.20
2014,08,08,06,34,14.20
2014,08,08,06,35,14.20
2014,08,08,06,36,14.20
2014,08,08,06,37,14.20
2014,08,08,06,38,14.20
2014,08,08,06,39,14.20
2014,08,08,06,40,14.20
2014,08,08,06,41,14.30
2014,08,08,06,42,14.30
2014,08,08,06,43,14.30
2014,08,08,06,44,14.30
2014,08,08,06,45,14.30
2014,08,08,06,46,14.40
2014,08,08,06,47,14.40
2014,08,08,06,48,14.40
2014,08,08,06,49,14.40
2014,08,08,06,50,14.40
2014,08,08,06,51,14.50
2014,08,08,06,52,14.50
2014,08,08,06,53,14.60
2014,08,08,06,54,14.60
2014,08,08,06,55,14.60
2014,08,08,06,56,14.60
2014,08,08,06,57,14.60
2014,08,08,06,58,14.60
2014,08,08,06,59,14.60
2014,08,08,07,00,14.70
2014,08,08,07,01,14.70
2014,08,08,07,02,14.70
2014,08,08,07,03,14.70
2014,08,08,07,04,14.70
2014,08,08,07,05,14.70
2014,08,08,07,06,14.70
2014,08,08,07,07,14.70
2014,08,08,07,08,14.80
2014,08,08,07,09,14.80
2014,08,08,07,10,14.80
2014,08,08,07,11,14.80
2014,08,08,07,12,14.80
2014,08,08,07,13,14.80
2014,08,08,07,14,14.90
2014,08,08,07,15,14.90
2014,08,08,07,16,14.90
2014,08,08,07,17,14.90
2014,08,08,07,18,15.00
2014,08,08,07,19,15.00
2014,08,08,07,20,15.10
2014,08,08,07,21,15.10
2014,08,08,07,22,15.20
2014,08,08,07,23,15.20
2014,08,08,07,24,15.30
2014,08,08,07,25,15.30
2014,08,08,07,26,15.40
2014,08,08,07,27,15.40
2014,08,08,07,28,15.50
2014,08,08,07,29,15.60
2014,08,08,07,30,15.60
2014,08,08,07,31,15.70
2014,08,08,07,32,15.70
2014,08,08,07,33,15.70
2014,08,08,07,34,15.80
2014,08,08,07,35,15.80
2014,08,08,07,36,15.80
2014,08,08,07,37,15.80
2014,08,08,07,38,15.90
2014,08,08,07,39,15.90
2014,08,08,07,40,15.90
2014,08,08,07,41,16.00
2014,08,08,07,42,16.00
2014,08,08,07,43,16.00
2014,08,08,07,44,16.00
2014,08,08,07,45,16.10
2014,08,08,07,46,16.10
2014,08,08,07,47,16.10
2014,08,08,07,48,16.20
2014,08,08,07,49,16.20
2014,08,08,07,50,16.20
2014,08,08,07,51,16.20
2014,08,08,07,52,16.30
2014,08,08,07,53,16.30
2014,08,08,07,54,16.30
2014,08,08,07,55,16.30
2014,08,08,07,56,16.30
2014,08,08,07,57,16.30
2014,08,08,07,58,16.40
2014,08,08,07,59,16.40
2014,08,08,08,00,16.40
2014,08,08,08,01,16.50
2014,08,08,08,02,16.50
2014,08,08,08,03,16.50
2014,08,08,08,04,16.50
2014,08,08,08,05,16.60
2014,08,08,08,06,16.60
2014,08,08,08,07,16.60
2014,08,08,08,08,16.60
2014,08,08,08,09,16.70
2014,08,08,08,10,16.70
2014,08,08,08,11,16.70
2014,08,08,08,12,16.70
2014,08,08,08,13,16.80
2014,08,08,08,14,16.80
2014,08,08,08,15,16.80
2014,08,08,08,16,16.80
2014,08,08,08,17,16.90
2014,08,08,08,18,16.90
2014,08,08,08,19,16.90
2014,08,08,08,20,17.00
2014,08,08,08,21,17.00
2014,08,08,08,22,17.00
2014,08,08,08,23,17.00
2014,08,08,08,24,17.00
2014,08,08,08,25,17.00
2014,08,08,08,26,17.00
2014,08,08,08,27,17.00
2014,08,08,08,28,17.10
2014,08,08,08,29,17.10
2014,08,08,08,30,17.10
2014,08,08,08,31,17.10
2014,08,08,08,32,17.20
2014,08,08,08,33,17.30
2014,08,08,08,34,17.30
2014,08,08,08,35,17.40
2014,08,08,08,36,17.50
2014,08,08,08,37,17.60
2014,08,08,08,38,17.60
2014,08,08,08,39,17.70
2014,08,08,08,40,17.70
2014,08,08,08,41,17.70
2014,08,08,08,42,17.70
2014,08,08,08,43,17.80
2014,08,08,08,44,17.80
2014,08,08,08,45,17.80
2014,08,08,08,46,17.80
2014,08,08,08,47,17.80
2014,08,08,08,48,17.80
2014,08,08,08,49,17.80
2014,08,08,08,50,17.80
2014,08,08,08,51,17.80
2014,08,08,08,52,17.80
2014,08,08,08,53,17.70
2014,08,08,08,54,17.70
2014,08,08,08,55,17.80
2014,08,08,08,56,17.80
2014,08,08,08,57,17.80
2014,08,08,08,58,17.80
2014,08,08,08,59,17.90
2014,08,08,09,00,17.90
2014,08,08,09,01,18.00
2014,08,08,09,02,18.00
2014,08,08,09,03,18.10
2014,08,08,09,04,18.10
2014,08,08,09,05,18.10
2014,08,08,09,06,18.20
2014,08,08,09,07,18.30
2014,08,08,09,08,18.30
2014,08,08,09,09,18.30
2014,08,08,09,10,18.30
2014,08,08,09,11,18.30
2014,08,08,09,12,18.30
2014,08,08,09,13,18.30
2014,08,08,09,14,18.30
2014,08,08,09,15,18.40
2014,08,08,09,16,18.40
2014,08,08,09,17,18.40
2014,08,08,09,18,18.50
2014,08,08,09,19,18.50
2014,08,08,09,20,18.60
2014,08,08,09,21,18.60
2014,08,08,09,22,18.70
2014,08,08,09,23,18.70
2014,08,08,09,24,18.80
2014,08,08,09,25,18.90
2014,08,08,09,26,18.90
2014,08,08,09,27,19.00
2014,08,08,09,28,19.10
2014,08,08,09,29,19.20
2014,08,08,09,30,19.20
2014,08,08,09,31,19.20
2014,08,08,09,32,19.20
2014,08,08,09,33,19.10
2014,08,08,09,34,19.10
2014,08,08,09,35,19.10
2014,08,08,09,36,19.10
2014,08,08,09,37,19.10
2014,08,08,09,38,19.10
2014,08,08,09,39,19.10
2014,08,08,09,40,19.00
2014,08,08,09,41,18.90
2014,08,08,09,42,18.90
2014,08,08,09,43,18.90
2014,08,08,09,44,18.80
2014,08,08,09,45,18.80
2014,08,08,09,46,18.90
2014,08,08,09,47,18.90
2014,08,08,09,48,19.00
2014,08,08,09,49,19.00
2014,08,08,09,50,19.10
2014,08,08,09,51,19.10
2014,08,08,09,52,19.10
2014,08,08,09,53,19.00
2014,08,08,09,54,19.00
2014,08,08,09,55,19.00
2014,08,08,09,56,19.00
2014,08,08,09,57,19.00
2014,08,08,09,58,19.10
2014,08,08,09,59,19.10
2014,08,08,10,00,19.10
2014,08,08,10,01,19.20
2014,08,08,10,02,19.30
2014,08,08,10,03,19.40
2014,08,08,10,04,19.40
2014,08,08,10,05,19.50
2014,08,08,10,06,19.50
2014,08,08,10,07,19.60
2014,08,08,10,08,19.70
2014,08,08,10,09,19.80
2014,08,08,10,10,19.80
2014,08,08,10,11,19.90
2014,08,08,10,12,19.80
2014,08,08,10,13,19.90
2014,08,08,10,14,19.90
2014,08,08,10,15,19.90
2014,08,08,10,16,19.90
2014,08,08,10,17,19.90
2014,08,08,10,18,20.00
2014,08,08,10,19,20.00
2014,08,08,10,20,20.10
2014,08,08,10,21,20.10
2014,08,08,10,22,20.10
2014,08,08,10,23,20.10
2014,08,08,10,24,20.10
2014,08,08,10,25,20.10
2014,08,08,10,26,20.10
2014,08,08,10,27,20.10
2014,08,08,10,28,20.10
2014,08,08,10,29,20.10
2014,08,08,10,30,20.20
2014,08,08,10,31,20.30
2014,08,08,10,32,20.30
2014,08,08,10,33,20.40
2014,08,08,10,34,20.40
2014,08,08,10,35,20.40
2014,08,08,10,36,20.30
2014,08,08,10,37,20.40
2014,08,08,10,38,20.40
2014,08,08,10,39,20.50
2014,08,08,10,40,20.60
2014,08,08,10,41,20.60
2014,08,08,10,42,20.60
2014,08,08,10,43,20.70
2014,08,08,10,44,20.70
2014,08,08,10,45,20.70
2014,08,08,10,46,20.70
2014,08,08,10,47,20.70
2014,08,08,10,48,20.60
2014,08,08,10,49,20.50
2014,08,08,10,50,20.50
2014,08,08,10,51,20.50
2014,08,08,10,52,20.50
2014,08,08,10,53,20.50
2014,08,08,10,54,20.40
2014,08,08,10,55,20.40
2014,08,08,10,56,20.40
2014,08,08,10,57,20.40
2014,08,08,10,58,20.40
2014,08,08,10,59,20.50
2014,08,08,11,00,20.50
2014,08,08,11,01,20.60
2014,08,08,11,02,20.60
2014,08,08,11,03,20.70
2014,08,08,11,04,20.70
2014,08,08,11,05,20.70
2014,08,08,11,06,20.60
2014,08,08,11,07,20.60
2014,08,08,11,08,20.70
2014,08,08,11,09,20.70
2014,08,08,11,10,20.80
2014,08,08,11,11,20.80
2014,08,08,11,12,20.90
2014,08,08,11,13,20.90
2014,08,08,11,14,20.90
2014,08,08,11,15,20.80
2014,08,08,11,16,20.80
2014,08,08,11,17,20.80
2014,08,08,11,18,20.70
2014,08,08,11,19,20.70
2014,08,08,11,20,20.70
2014,08,08,11,21,20.70
2014,08,08,11,22,20.70
2014,08,08,11,23,20.70
2014,08,08,11,24,20.70
2014,08,08,11,25,20.80
2014,08,08,11,26,20.80
2014,08,08,11,27,20.80
2014,08,08,11,28,20.80
2014,08,08,11,29,20.80
2014,08,08,11,30,20.80
2014,08,08,11,31,20.80
2014,08,08,11,32,20.80
2014,08,08,11,33,20.80
2014,08,08,11,34,20.80
2014,08,08,11,35,20.80
2014,08,08,11,36,20.80
2014,08,08,11,37,20.80
2014,08,08,11,38,20.80
2014,08,08,11,39,20.80
2014,08,08,11,40,20.80
2014,08,08,11,41,20.90
2014,08,08,11,42,20.90
2014,08,08,11,43,20.90
2014,08,08,11,44,20.90
2014,08,08,11,45,21.00
2014,08,08,11,46,21.10
2014,08,08,11,47,21.10
2014,08,08,11,48,21.20
2014,08,08,11,49,21.30
2014,08,08,11,50,21.40
2014,08,08,11,51,21.50
2014,08,08,11,52,21.60
2014,08,08,11,53,21.60
2014,08,08,11,54,21.60
2014,08,08,11,55,21.60
2014,08,08,11,56,21.50
2014,08,08,11,57,21.50
2014,08,08,11,58,21.50
2014,08,08,11,59,21.60
2014,08,08,12,00,21.60
2014,08,08,12,01,21.70
2014,08,08,12,02,21.80
2014,08,08,12,03,21.90
2014,08,08,12,04,22.00
2014,08,08,12,05,22.10
2014,08,08,12,06,22.20
2014,08,08,12,07,22.20
2014,08,08,12,08,22.20
2014,08,08,12,09,22.30
2014,08,08,12,10,22.30
2014,08,08,12,11,22.30
2014,08,08,12,12,22.30
2014,08,08,12,13,22.30
2014,08,08,12,14,22.40
2014,08,08,12,15,22.40
2014,08,08,12,16,22.50
2014,08,08,12,17,22.50
2014,08,08,12,18,22.50
2014,08,08,12,19,22.30
2014,08,08,12,20,22.30
2014,08,08,12,21,22.20
2014,08,08,12,22,22.30
2014,08,08,12,23,22.30
2014,08,08,12,24,22.40
2014,08,08,12,25,22.50
2014,08,08,12,26,22.60
2014,08,08,12,27,22.70
2014,08,08,12,28,22.70
2014,08,08,12,29,22.70
2014,08,08,12,30,22.70
2014,08,08,12,31,22.70
2014,08,08,12,32,22.60
2014,08,08,12,33,22.60
2014,08,08,12,34,22.70
2014,08,08,12,35,22.80
2014,08,08,12,36,22.90
2014,08,08,12,37,22.90
2014,08,08,12,38,23.00
2014,08,08,12,39,23.00
2014,08,08,12,40,23.10
2014,08,08,12,41,23.10
2014,08,08,12,42,23.10
2014,08,08,12,43,23.10
2014,08,08,12,44,23.10
2014,08,08,12,45,23.10
2014,08,08,12,46,23.10
2014,08,08,12,47,23.20
2014,08,08,12,48,23.20
2014,08,08,12,49,23.30
2014,08,08,12,50,23.30
2014,08,08,12,51,23.30
2014,08,08,12,52,23.20
2014,08,08,12,53,23.10
2014,08,08,12,54,23.10
2014,08,08,12,55,23.10
2014,08,08,12,56,23.00
2014,08,08,12,57,23.00
2014,08,08,12,58,23.00
2014,08,08,12,59,23.00
2014,08,08,13,00,23.10
2014,08,08,13,01,23.10
2014,08,08,13,02,23.10
2014,08,08,13,03,23.20
2014,08,08,13,04,23.20
2014,08,08,13,05,23.20
2014,08,08,13,06,23.20
2014,08,08,13,07,23.20
2014,08,08,13,08,23.20
2014,08,08,13,09,23.30
2014,08,08,13,10,23.40
2014,08,08,13,11,23.40
2014,08,08,13,12,23.50
2014,08,08,13,13,23.50
2014,08,08,13,14,23.60
2014,08,08,13,15,23.60
2014,08,08,13,16,23.60
2014,08,08,13,17,23.60
2014,08,08,13,18,23.70
2014,08,08,13,19,23.80
2014,08,08,13,20,23.80
2014,08,08,13,21,23.90
2014,08,08,13,22,23.90
2014,08,08,13,23,23.90
2014,08,08,13,24,23.90
2014,08,08,13,25,23.90
2014,08,08,13,26,23.90
2014,08,08,13,27,23.90
2014,08,08,13,28,24.00
2014,08,08,13,29,24.10
2014,08,08,13,30,24.10
2014,08,08,13,31,24.20
2014,08,08,13,32,24.20
2014,08,08,13,33,24.30
2014,08,08,13,34,24.40
2014,08,08,13,35,24.40
2014,08,08,13,36,24.50
2014,08,08,13,37,24.50
2014,08,08,13,38,24.60
2014,08,08,13,39,24.50
2014,08,08,13,40,24.50
2014,08,08,13,41,24.40
2014,08,08,13,42,24.40
2014,08,08,13,43,24.40
2014,08,08,13,44,24.40
2014,08,08,13,45,24.40
2014,08,08,13,46,24.40
2014,08,08,13,47,24.40
2014,08,08,13,48,24.40
2014,08,08,13,49,24.40
2014,08,08,13,50,24.40
2014,08,08,13,51,24.40
2014,08,08,13,52,24.40
2014,08,08,13,53,24.40
2014,08,08,13,54,24.40
2014,08,08,13,55,24.50
2014,08,08,13,56,24.60
2014,08,08,13,57,24.60
2014,08,08,13,58,24.70
2014,08,08,13,59,24.80
2014,08,08,14,00,24.80
2014,08,08,14,01,24.80
2014,08,08,14,02,24.70
2014,08,08,14,03,24.50
2014,08,08,14,04,24.40
2014,08,08,14,05,24.20
2014,08,08,14,06,23.90
2014,08,08,14,07,23.80
2014,08,08,14,08,23.70
2014,08,08,14,09,23.60
2014,08,08,14,10,23.60
2014,08,08,14,11,23.60
2014,08,08,14,12,23.60
2014,08,08,14,13,23.70
2014,08,08,14,14,23.80
2014,08,08,14,15,23.80
2014,08,08,14,16,23.90
2014,08,08,14,17,23.90
2014,08,08,14,18,23.90
2014,08,08,14,19,23.90
2014,08,08,14,20,23.90
2014,08,08,14,21,24.00
2014,08,08,14,22,24.00
2014,08,08,14,23,24.00
2014,08,08,14,24,24.10
2014,08,08,14,25,24.10
2014,08,08,14,26,24.10
2014,08,08,14,27,24.10
2014,08,08,14,28,24.00
2014,08,08,14,29,23.90
2014,08,08,14,30,23.80
2014,08,08,14,31,23.70
2014,08,08,14,32,23.70
2014,08,08,14,33,23.70
2014,08,08,14,34,23.70
2014,08,08,14,35,23.70
2014,08,08,14,36,23.70
2014,08,08,14,37,23.80
2014,08,08,14,38,23.80
2014,08,08,14,39,23.80
2014,08,08,14,40,23.80
2014,08,08,14,41,23.80
2014,08,08,14,42,23.70
2014,08,08,14,43,23.70
2014,08,08,14,44,23.70
2014,08,08,14,45,23.60
2014,08,08,14,46,23.50
2014,08,08,14,47,23.50
2014,08,08,14,48,23.40
2014,08,08,14,49,23.40
2014,08,08,14,50,23.30
2014,08,08,14,51,23.40
2014,08,08,14,52,23.50
2014,08,08,14,53,23.50
2014,08,08,14,54,23.60
2014,08,08,14,55,23.70
2014,08,08,14,56,23.80
2014,08,08,14,57,23.90
2014,08,08,14,58,24.00
2014,08,08,14,59,24.00
2014,08,08,15,00,24.00
2014,08,08,15,01,24.10
2014,08,08,15,02,24.10
2014,08,08,15,03,24.10
2014,08,08,15,04,24.10
2014,08,08,15,05,24.00
2014,08,08,15,06,23.90
2014,08,08,15,07,23.90
2014,08,08,15,08,23.90
2014,08,08,15,09,23.80
2014,08,08,15,10,23.80
2014,08,08,15,11,23.70
2014,08,08,15,12,23.70
2014,08,08,15,13,23.60
2014,08,08,15,14,23.50
2014,08,08,15,15,23.50
2014,08,08,15,16,23.50
2014,08,08,15,17,23.40
2014,08,08,15,18,23.50
2014,08,08,15,19,23.50
2014,08,08,15,20,23.50
2014,08,08,15,21,23.60
2014,08,08,15,22,23.60
2014,08,08,15,23,23.60
2014,08,08,15,24,23.60
2014,08,08,15,25,23.60
2014,08,08,15,26,23.70
2014,08,08,15,27,23.70
2014,08,08,15,28,23.60
2014,08,08,15,29,23.60
2014,08,08,15,30,23.60
2014,08,08,15,31,23.60
2014,08,08,15,32,23.60
2014,08,08,15,33,23.70
2014,08,08,15,34,23.80
2014,08,08,15,35,23.80
2014,08,08,15,36,23.90
2014,08,08,15,37,23.90
2014,08,08,15,38,23.90
2014,08,08,15,39,23.90
2014,08,08,15,40,23.90
2014,08,08,15,41,23.90
2014,08,08,15,42,23.90
2014,08,08,15,43,23.90
2014,08,08,15,44,24.00
2014,08,08,15,45,24.00
2014,08,08,15,46,24.10
2014,08,08,15,47,24.20
2014,08,08,15,48,24.20
2014,08,08,15,49,24.30
2014,08,08,15,50,24.40
2014,08,08,15,51,24.50
2014,08,08,15,52,24.50
2014,08,08,15,53,24.60
2014,08,08,15,54,24.70
2014,08,08,15,55,24.70
2014,08,08,15,56,24.70
2014,08,08,15,57,24.70
2014,08,08,15,58,24.70
2014,08,08,15,59,24.70
2014,08,08,16,00,24.80
2014,08,08,16,01,24.80
2014,08,08,16,02,24.70
2014,08,08,16,03,24.70
2014,08,08,16,04,24.70
2014,08,08,16,05,24.70
2014,08,08,16,06,24.70
2014,08,08,16,07,24.70
2014,08,08,16,08,24.70
2014,08,08,16,09,24.70
2014,08,08,16,10,24.80
2014,08,08,16,11,24.80
2014,08,08,16,12,24.90
2014,08,08,16,13,24.90
2014,08,08,16,14,24.90
2014,08,08,16,15,24.90
2014,08,08,16,16,24.80
2014,08,08,16,17,24.80
2014,08,08,16,18,24.80
2014,08,08,16,19,24.80
2014,08,08,16,20,24.70
2014,08,08,16,21,24.70
2014,08,08,16,22,24.70
2014,08,08,16,23,24.70
2014,08,08,16,24,24.70
2014,08,08,16,25,24.80
2014,08,08,16,26,24.80
2014,08,08,16,27,24.90
2014,08,08,16,28,25.00
2014,08,08,16,29,25.00
2014,08,08,16,30,25.10
2014,08,08,16,31,25.10
2014,08,08,16,32,25.10
2014,08,08,16,33,25.20
2014,08,08,16,34,25.10
2014,08,08,16,35,25.10
2014,08,08,16,36,25.00
2014,08,08,16,37,24.90
2014,08,08,16,38,24.90
2014,08,08,16,39,24.80
2014,08,08,16,40,24.80
2014,08,08,16,41,24.80
2014,08,08,16,42,24.80
2014,08,08,16,43,24.80
2014,08,08,16,44,24.80
2014,08,08,16,45,24.80
2014,08,08,16,46,24.80
2014,08,08,16,47,24.80
2014,08,08,16,48,24.80
2014,08,08,16,49,24.80
2014,08,08,16,50,24.90
2014,08,08,16,51,24.90
2014,08,08,16,52,24.90
2014,08,08,16,53,24.90
2014,08,08,16,54,24.80
2014,08,08,16,55,24.80
2014,08,08,16,56,24.80
2014,08,08,16,57,24.80
2014,08,08,16,58,24.80
2014,08,08,16,59,24.80
2014,08,08,17,00,24.90
2014,08,08,17,01,24.90
2014,08,08,17,02,25.00
2014,08,08,17,03,25.00
2014,08,08,17,04,24.90
2014,08,08,17,05,24.80
2014,08,08,17,06,24.80
2014,08,08,17,07,24.70
2014,08,08,17,08,24.60
2014,08,08,17,09,24.60
2014,08,08,17,10,24.60
2014,08,08,17,11,24.70
2014,08,08,17,12,24.60
2014,08,08,17,13,24.60
2014,08,08,17,14,24.60
2014,08,08,17,15,24.70
2014,08,08,17,16,24.70
2014,08,08,17,17,24.80
2014,08,08,17,18,24.90
2014,08,08,17,19,25.00